Montgomery, NY

5:09 AM EST on January 18, 2018 (GMT -0500)
Orange County

Weather History for KMGJ - October, 2013

Change the Weather History Date:

Wednesday, October 23, 2013

  Actual Average (KSWF) Record (KSWF)
Temperature  
Mean Temperature 41 °F -  
Max Temperature 53 °F 56 °F 86 °F (1979)
Min Temperature 30 °F 37 °F 18 °F (1982)
Degree Days  
Heating Degree Days 24    
Moisture  
Dew Point 32 °F    
Average Humidity 81    
Maximum Humidity 100    
Minimum Humidity 45    
Precipitation  
Precipitation 0.00 in - - ()
Sea Level Pressure  
Sea Level Pressure 29.74 in    
Wind  
Wind Speed 2 mph (NW)    
Max Wind Speed 13 mph    
Max Gust Speed -    
Visibility 8 miles    
Events Fog , Rain    
Averages and records for this station are not official NWS values.
T = Trace of Precipitation, MM = Missing Value Source: NWS Daily Summary

Daily Weather History Graph

Daily Weather History Graph

Search for Another Location

Airport or City:

Trip Planner

Search our weather history database for the weather conditions in past years. The results will help you decide how hot, cold, wet, or windy it might be!

Date:

Astronomy

Oct. 23, 2013 Rise Set
Actual Time 7:18 AM EDT 6:03 PM EDT
Civil Twilight 6:50 AM EDT 6:31 PM EDT
Nautical Twilight 6:17 AM EDT 7:04 PM EDT
Astronomical Twilight 5:45 AM EDT 7:36 PM EDT
Moon 9:30 PM EDT (10/23) 11:35 AM EDT (10/23)
Length of Visible Light 11h 41m
Length of Day
10h 45m
Waning Gibbous, 79% of the Moon is Illuminated
Oct 23
Waning Gibbous
Oct 26
Last Quarter
Nov 3
New
Nov 10
First Quarter
Nov 17
Full

Hourly Weather History & Observations

Time (EDT) Temp. Windchill Dew Point Humidity Pressure Visibility Wind Dir Wind Speed Gust Speed Precip Events Conditions
12:54 AM 33.1 °F 30.0 °F 32.0 °F 96% 29.83 in 10.0 mi SE 3.5 mph - N/A   Clear
1:54 AM 33.1 °F - 32.0 °F 96% 29.82 in 6.0 mi Calm Calm - N/A   Clear
2:54 AM 32.0 °F 27.5 °F 30.9 °F 96% 29.81 in 10.0 mi SSW 4.6 mph - N/A   Clear
3:54 AM 33.1 °F - 30.9 °F 92% 29.78 in 10.0 mi Calm Calm - 0.00 in Rain Light Rain
4:54 AM 32.0 °F 27.5 °F 30.9 °F 96% 29.79 in 7.0 mi North 4.6 mph - 0.00 in   Clear
5:54 AM 30.0 °F - 28.9 °F 96% 29.78 in 10.0 mi Calm Calm - N/A   Clear
6:37 AM 30.2 °F - 28.4 °F 93% 29.77 in 2.5 mi Calm Calm - N/A   Clear
6:44 AM 30.2 °F - 30.2 °F 100% 29.77 in 5.0 mi Calm Calm - N/A   Clear
6:54 AM 30.9 °F - 28.9 °F 92% 29.78 in 4.0 mi Calm Calm - N/A   Clear
7:23 AM 30.2 °F - 30.2 °F 100% 29.77 in 1.0 mi Calm Calm - N/A   Clear
7:30 AM 32.0 °F - 30.2 °F 93% 29.78 in 0.5 mi Calm Calm - N/A Fog Fog
7:34 AM 30.2 °F - 30.2 °F 100% 29.78 in 1.2 mi Calm Calm - N/A   Clear
7:43 AM 32.0 °F - 30.2 °F 93% 29.78 in 8.0 mi Calm Calm - N/A   Scattered Clouds
7:54 AM 32.0 °F - 30.9 °F 96% 29.78 in 8.0 mi Calm Calm - N/A   Scattered Clouds
8:54 AM 36.0 °F - 34.0 °F 93% 29.79 in 10.0 mi Calm Calm - N/A   Overcast
9:54 AM 39.0 °F - 36.0 °F 89% 29.77 in 10.0 mi Calm Calm - N/A   Overcast
10:54 AM 42.1 °F 40.2 °F 37.0 °F 82% 29.76 in 10.0 mi NNE 3.5 mph - N/A   Overcast
11:54 AM 48.9 °F - 37.0 °F 64% 29.73 in 10.0 mi NNE 4.6 mph - N/A   Clear
12:54 PM 51.1 °F - 35.1 °F 54% 29.68 in 10.0 mi North 5.8 mph - N/A   Partly Cloudy
1:54 PM 51.1 °F - 32.0 °F 48% 29.64 in 10.0 mi WSW 4.6 mph - N/A   Overcast
2:54 PM 52.0 °F - 30.9 °F 45% 29.64 in 10.0 mi Calm Calm - N/A   Overcast
3:54 PM 51.1 °F - 33.1 °F 50% 29.65 in 10.0 mi North 8.1 mph - N/A   Overcast
4:54 PM 50.0 °F - 33.1 °F 52% 29.65 in 10.0 mi North 12.7 mph - N/A   Overcast
5:54 PM 48.0 °F - 33.1 °F 56% 29.67 in 10.0 mi NW 8.1 mph - N/A   Overcast
6:54 PM 46.0 °F 43.1 °F 34.0 °F 63% 29.69 in 10.0 mi WNW 5.8 mph - N/A   Overcast
7:54 PM 46.0 °F 42.5 °F 35.1 °F 66% 29.70 in 10.0 mi NW 6.9 mph - N/A   Overcast
8:54 PM 45.0 °F 41.8 °F 35.1 °F 68% 29.71 in 10.0 mi West 5.8 mph - N/A   Overcast
9:54 PM 41.0 °F 39.0 °F 35.1 °F 79% 29.73 in 10.0 mi SSW 3.5 mph - N/A   Mostly Cloudy
10:54 PM 36.0 °F 32.1 °F 33.1 °F 89% 29.75 in 10.0 mi WSW 4.6 mph - N/A   Partly Cloudy
11:54 PM 37.9 °F - 34.0 °F 86% 29.75 in 10.0 mi Calm Calm - N/A   Overcast